Time,TemperatureF,DewpointF,PressureIn,WindDirection,WindDirectionDegrees,WindSpeedMPH,WindSpeedGustMPH,Humidity,HourlyPrecipIn,Conditions,Clouds,dailyrainin,SoftwareType,DateUTC
2013-08-14 00:10:00,-999.0,-99.9,29.98,North,-999,-999.0,-999.0,-999,-99.99,,,0.00,weatherlink.com 1.10,2013-08-14 04:10:00,
2013-08-14 00:25:00,-999.0,-99.9,29.98,North,-999,-999.0,-999.0,-999,-99.99,,,0.00,weatherlink.com 1.10,2013-08-14 04:25:00,
2013-08-14 00:40:00,-999.0,-99.9,29.98,North,-999,-999.0,-999.0,-999,-99.99,,,0.00,weatherlink.com 1.10,2013-08-14 04:40:00,
2013-08-14 00:55:00,-999.0,-99.9,29.97,North,-999,-999.0,-999.0,-999,-99.99,,,0.00,weatherlink.com 1.10,2013-08-14 04:55:00,
2013-08-14 01:10:00,-999.0,-99.9,29.97,North,-999,-999.0,-999.0,-999,-99.99,,,0.00,weatherlink.com 1.10,2013-08-14 05:10:00,
2013-08-14 01:25:00,-999.0,-99.9,29.96,North,-999,-999.0,-999.0,-999,-99.99,,,0.00,weatherlink.com 1.10,2013-08-14 05:25:00,
2013-08-14 01:40:00,-999.0,-99.9,29.95,North,-999,-999.0,-999.0,-999,-99.99,,,0.00,weatherlink.com 1.10,2013-08-14 05:40:00,
2013-08-14 01:55:00,-999.0,-99.9,29.95,North,-999,-999.0,-999.0,-999,-99.99,,,0.00,weatherlink.com 1.10,2013-08-14 05:55:00,
2013-08-14 02:10:00,-999.0,-99.9,29.95,North,-999,-999.0,-999.0,-999,-99.99,,,0.00,weatherlink.com 1.10,2013-08-14 06:10:00,
2013-08-14 02:25:00,-999.0,-99.9,29.95,North,-999,-999.0,-999.0,-999,-99.99,,,0.00,weatherlink.com 1.10,2013-08-14 06:25:00,
2013-08-14 02:40:00,-999.0,-99.9,29.94,North,-999,-999.0,-999.0,-999,-99.99,,,0.00,weatherlink.com 1.10,2013-08-14 06:40:00,
2013-08-14 02:55:00,-999.0,-99.9,29.93,North,-999,-999.0,-999.0,-999,-99.99,,,0.00,weatherlink.com 1.10,2013-08-14 06:55:00,
2013-08-14 03:10:00,-999.0,-99.9,29.93,North,-999,-999.0,-999.0,-999,-99.99,,,0.00,weatherlink.com 1.10,2013-08-14 07:10:00,
2013-08-14 03:25:00,-999.0,-99.9,29.93,North,-999,-999.0,-999.0,-999,-99.99,,,0.00,weatherlink.com 1.10,2013-08-14 07:25:00,
2013-08-14 03:40:00,-999.0,-99.9,29.93,North,-999,-999.0,-999.0,-999,-99.99,,,0.00,weatherlink.com 1.10,2013-08-14 07:40:00,
2013-08-14 03:55:00,-999.0,-99.9,29.93,North,-999,-999.0,-999.0,-999,-99.99,,,0.00,weatherlink.com 1.10,2013-08-14 07:55:00,
2013-08-14 04:10:00,-999.0,-99.9,29.93,North,-999,-999.0,-999.0,-999,-99.99,,,0.00,weatherlink.com 1.10,2013-08-14 08:10:00,
2013-08-14 04:25:00,-999.0,-99.9,29.92,North,-999,-999.0,-999.0,-999,-99.99,,,0.00,weatherlink.com 1.10,2013-08-14 08:25:00,
2013-08-14 04:40:00,-999.0,-99.9,29.91,North,-999,-999.0,-999.0,-999,-99.99,,,0.00,weatherlink.com 1.10,2013-08-14 08:40:00,
2013-08-14 04:55:00,-999.0,-99.9,29.91,North,-999,-999.0,-999.0,-999,-99.99,,,0.00,weatherlink.com 1.10,2013-08-14 08:55:00,
2013-08-14 05:10:00,-999.0,-99.9,29.92,North,-999,-999.0,-999.0,-999,-99.99,,,0.00,weatherlink.com 1.10,2013-08-14 09:10:00,
2013-08-14 05:25:00,-999.0,-99.9,29.92,North,-999,-999.0,-999.0,-999,-99.99,,,0.00,weatherlink.com 1.10,2013-08-14 09:25:00,
2013-08-14 05:40:00,-999.0,-99.9,29.92,North,-999,-999.0,-999.0,-999,-99.99,,,0.00,weatherlink.com 1.10,2013-08-14 09:40:00,
2013-08-14 05:55:00,-999.0,-99.9,29.91,North,-999,-999.0,-999.0,-999,-99.99,,,0.00,weatherlink.com 1.10,2013-08-14 09:55:00,
2013-08-14 06:10:00,-999.0,-99.9,29.91,North,-999,-999.0,-999.0,-999,-99.99,,,0.00,weatherlink.com 1.10,2013-08-14 10:10:00,
2013-08-14 06:25:00,-999.0,-99.9,29.92,North,-999,-999.0,-999.0,-999,-99.99,,,0.00,weatherlink.com 1.10,2013-08-14 10:25:00,
2013-08-14 06:40:00,-999.0,-99.9,29.92,North,-999,-999.0,-999.0,-999,-99.99,,,0.00,weatherlink.com 1.10,2013-08-14 10:40:00,
2013-08-14 06:55:00,-999.0,-99.9,29.93,North,-999,-999.0,-999.0,-999,-99.99,,,0.00,weatherlink.com 1.10,2013-08-14 10:55:00,
2013-08-14 07:10:00,-999.0,-99.9,29.93,North,-999,-999.0,-999.0,-999,-99.99,,,0.00,weatherlink.com 1.10,2013-08-14 11:10:00,
2013-08-14 07:25:00,-999.0,-99.9,29.92,North,-999,-999.0,-999.0,-999,-99.99,,,0.00,weatherlink.com 1.10,2013-08-14 11:25:00,
2013-08-14 07:40:00,-999.0,-99.9,29.93,North,-999,-999.0,-999.0,-999,-99.99,,,0.00,weatherlink.com 1.10,2013-08-14 11:40:00,
2013-08-14 07:55:00,-999.0,-99.9,29.93,North,-999,-999.0,-999.0,-999,-99.99,,,0.00,weatherlink.com 1.10,2013-08-14 11:55:00,
2013-08-14 08:10:00,-999.0,-99.9,29.93,North,-999,-999.0,-999.0,-999,-99.99,,,0.00,weatherlink.com 1.10,2013-08-14 12:10:00,
2013-08-14 08:25:00,-999.0,-99.9,29.93,North,-999,-999.0,-999.0,-999,-99.99,,,0.00,weatherlink.com 1.10,2013-08-14 12:25:00,
2013-08-14 08:40:00,-999.0,-99.9,29.93,North,-999,-999.0,-999.0,-999,-99.99,,,0.00,weatherlink.com 1.10,2013-08-14 12:40:00,
2013-08-14 08:55:00,86.3,76.0,29.93,SSE,148,6.0,-999.0,71,-99.99,,,0.00,weatherlink.com 1.10,2013-08-14 12:55:00,
2013-08-14 09:10:00,86.7,75.0,29.93,SSE,163,4.0,-999.0,69,-99.99,,,0.00,weatherlink.com 1.10,2013-08-14 13:10:00,
2013-08-14 09:25:00,87.6,75.0,29.93,SE,136,2.0,-999.0,67,-99.99,,,0.00,weatherlink.com 1.10,2013-08-14 13:25:00,
2013-08-14 09:40:00,87.6,76.0,29.93,SSE,164,0.0,-999.0,68,-99.99,,,0.00,weatherlink.com 1.10,2013-08-14 13:40:00,
2013-08-14 09:55:00,88.2,76.0,29.93,South,180,3.0,-999.0,67,-99.99,,,0.00,weatherlink.com 1.10,2013-08-14 13:55:00,
2013-08-14 10:10:00,88.6,75.0,29.93,SSE,165,1.0,-999.0,64,-99.99,,,0.00,weatherlink.com 1.10,2013-08-14 14:10:00,
2013-08-14 10:25:00,88.8,75.0,29.93,SSE,163,1.0,-999.0,64,-99.99,,,0.00,weatherlink.com 1.10,2013-08-14 14:25:00,
2013-08-14 10:40:00,89.3,75.0,29.94,SSE,167,3.0,-999.0,63,-99.99,,,0.00,weatherlink.com 1.10,2013-08-14 14:40:00,
2013-08-14 10:55:00,89.5,75.0,29.94,SSE,154,5.0,-999.0,63,-99.99,,,0.00,weatherlink.com 1.10,2013-08-14 14:55:00,
2013-08-14 11:10:00,89.9,74.0,29.94,South,169,5.0,-999.0,60,-99.99,,,0.00,weatherlink.com 1.10,2013-08-14 15:10:00,
2013-08-14 11:25:00,90.5,75.0,29.95,SSE,157,6.0,-999.0,61,-99.99,,,0.00,weatherlink.com 1.10,2013-08-14 15:25:00,
2013-08-14 11:40:00,90.7,76.0,29.95,SSE,153,0.0,-999.0,62,-99.99,,,0.00,weatherlink.com 1.10,2013-08-14 15:40:00,
2013-08-14 11:55:00,90.3,76.0,29.96,South,179,0.0,-999.0,63,-99.99,,,0.00,weatherlink.com 1.10,2013-08-14 15:55:00,
2013-08-14 12:10:00,90.5,75.0,29.95,South,171,10.0,-999.0,61,-99.99,,,0.00,weatherlink.com 1.10,2013-08-14 16:10:00,
2013-08-14 12:25:00,90.5,75.0,29.96,SSE,148,2.0,-999.0,61,-99.99,,,0.00,weatherlink.com 1.10,2013-08-14 16:25:00,
2013-08-14 12:40:00,91.0,75.0,29.95,SSE,150,5.0,-999.0,60,-99.99,,,0.00,weatherlink.com 1.10,2013-08-14 16:40:00,
2013-08-14 12:55:00,91.4,76.0,29.95,SSE,163,7.0,-999.0,60,-99.99,,,0.00,weatherlink.com 1.10,2013-08-14 16:55:00,
2013-08-14 13:10:00,90.5,74.0,29.95,SSE,165,10.0,-999.0,59,-99.99,,,0.00,weatherlink.com 1.10,2013-08-14 17:10:00,
2013-08-14 13:25:00,91.0,75.0,29.94,SSE,167,3.0,-999.0,59,-99.99,,,0.00,weatherlink.com 1.10,2013-08-14 17:25:00,
2013-08-14 13:40:00,90.5,75.0,29.94,SSE,153,6.0,-999.0,60,-99.99,,,0.00,weatherlink.com 1.10,2013-08-14 17:40:00,
2013-08-14 13:55:00,91.8,75.0,29.94,South,170,6.0,-999.0,58,-99.99,,,0.00,weatherlink.com 1.10,2013-08-14 17:55:00,
2013-08-14 14:10:00,91.4,76.0,29.94,SE,140,4.0,-999.0,60,-99.99,,,0.00,weatherlink.com 1.10,2013-08-14 18:10:00,
2013-08-14 14:25:00,91.0,75.0,29.93,SE,146,1.0,-999.0,59,-99.99,,,0.00,weatherlink.com 1.10,2013-08-14 18:25:00,
2013-08-14 14:40:00,91.8,76.0,29.93,ESE,102,9.0,-999.0,60,-99.99,,,0.00,weatherlink.com 1.10,2013-08-14 18:40:00,
2013-08-14 14:55:00,91.0,76.0,29.93,South,170,6.0,-999.0,61,-99.99,,,0.00,weatherlink.com 1.10,2013-08-14 18:55:00,
2013-08-14 15:40:00,90.7,75.0,29.91,SE,144,9.0,-999.0,60,-99.99,,,0.00,weatherlink.com 1.10,2013-08-14 19:40:00,
2013-08-14 15:55:00,91.0,75.0,29.91,South,172,9.0,-999.0,60,-99.99,,,0.00,weatherlink.com 1.10,2013-08-14 19:55:00,
2013-08-14 16:10:00,90.7,75.0,29.91,SSE,165,5.0,-999.0,60,-99.99,,,0.00,weatherlink.com 1.10,2013-08-14 20:10:00,
2013-08-14 16:25:00,90.7,75.0,29.91,South,169,4.0,-999.0,60,-99.99,,,0.00,weatherlink.com 1.10,2013-08-14 20:25:00,
2013-08-14 16:40:00,90.3,75.0,29.90,SSE,162,6.0,-999.0,60,-99.99,,,0.00,weatherlink.com 1.10,2013-08-14 20:40:00,
2013-08-14 17:10:00,90.1,74.0,29.90,SSE,162,2.0,-999.0,60,-99.99,,,0.00,weatherlink.com 1.10,2013-08-14 21:10:00,
2013-08-14 17:25:00,90.5,75.0,29.89,East,93,0.0,-999.0,61,-99.99,,,0.00,weatherlink.com 1.10,2013-08-14 21:25:00,
2013-08-14 17:40:00,90.5,76.0,29.89,SSE,159,3.0,-999.0,62,-99.99,,,0.00,weatherlink.com 1.10,2013-08-14 21:40:00,
2013-08-14 17:56:00,90.1,75.0,29.89,South,178,6.0,-999.0,62,-99.99,,,0.00,weatherlink.com 1.10,2013-08-14 21:56:00,
2013-08-14 18:10:00,89.3,76.0,29.89,South,169,6.0,-999.0,64,-99.99,,,0.00,weatherlink.com 1.10,2013-08-14 22:10:00,
2013-08-14 18:25:00,89.3,76.0,29.90,SSE,155,1.0,-999.0,64,-99.99,,,0.00,weatherlink.com 1.10,2013-08-14 22:25:00,
2013-08-14 18:40:00,88.8,76.0,29.90,ENE,67,2.0,-999.0,65,-99.99,,,0.00,weatherlink.com 1.10,2013-08-14 22:40:00,
2013-08-14 18:55:00,88.2,75.0,29.91,SSE,158,1.0,-999.0,66,-99.99,,,0.00,weatherlink.com 1.10,2013-08-14 22:55:00,
2013-08-14 19:10:00,-999.0,-99.9,29.91,North,-999,-999.0,-999.0,-999,-99.99,,,0.00,weatherlink.com 1.10,2013-08-14 23:10:00,
2013-08-14 19:25:00,-999.0,-99.9,29.91,North,-999,-999.0,-999.0,-999,-99.99,,,0.00,weatherlink.com 1.10,2013-08-14 23:25:00,
2013-08-14 19:40:00,-999.0,-99.9,29.91,North,-999,-999.0,-999.0,-999,-99.99,,,0.00,weatherlink.com 1.10,2013-08-14 23:40:00,
2013-08-14 19:55:00,-999.0,-99.9,29.92,North,-999,-999.0,-999.0,-999,-99.99,,,0.00,weatherlink.com 1.10,2013-08-14 23:55:00,
2013-08-14 20:10:00,-999.0,-99.9,29.92,North,-999,-999.0,-999.0,-999,-99.99,,,0.00,weatherlink.com 1.10,2013-08-15 00:10:00,
2013-08-14 20:25:00,-999.0,-99.9,29.93,North,-999,-999.0,-999.0,-999,-99.99,,,0.00,weatherlink.com 1.10,2013-08-15 00:25:00,
2013-08-14 20:40:00,-999.0,-99.9,29.93,North,-999,-999.0,-999.0,-999,-99.99,,,0.00,weatherlink.com 1.10,2013-08-15 00:40:00,
2013-08-14 20:55:00,-999.0,-99.9,29.93,North,-999,-999.0,-999.0,-999,-99.99,,,0.00,weatherlink.com 1.10,2013-08-15 00:55:00,
2013-08-14 21:10:00,-999.0,-99.9,29.94,North,-999,-999.0,-999.0,-999,-99.99,,,0.00,weatherlink.com 1.10,2013-08-15 01:10:00,
2013-08-14 21:25:00,-999.0,-99.9,29.96,North,-999,-999.0,-999.0,-999,-99.99,,,0.00,weatherlink.com 1.10,2013-08-15 01:25:00,
2013-08-14 21:40:00,-999.0,-99.9,29.96,North,-999,-999.0,-999.0,-999,-99.99,,,0.00,weatherlink.com 1.10,2013-08-15 01:40:00,
2013-08-14 21:55:00,-999.0,-99.9,29.97,North,-999,-999.0,-999.0,-999,-99.99,,,0.00,weatherlink.com 1.10,2013-08-15 01:55:00,
2013-08-14 22:10:00,-999.0,-99.9,29.97,North,-999,-999.0,-999.0,-999,-99.99,,,0.00,weatherlink.com 1.10,2013-08-15 02:10:00,
2013-08-14 22:25:00,-999.0,-99.9,29.97,North,-999,-999.0,-999.0,-999,-99.99,,,0.00,weatherlink.com 1.10,2013-08-15 02:25:00,
2013-08-14 22:40:00,-999.0,-99.9,29.97,North,-999,-999.0,-999.0,-999,-99.99,,,0.00,weatherlink.com 1.10,2013-08-15 02:40:00,
2013-08-14 22:55:00,-999.0,-99.9,29.97,North,-999,-999.0,-999.0,-999,-99.99,,,0.00,weatherlink.com 1.10,2013-08-15 02:55:00,
2013-08-14 23:10:00,-999.0,-99.9,29.98,North,-999,-999.0,-999.0,-999,-99.99,,,0.00,weatherlink.com 1.10,2013-08-15 03:10:00,
2013-08-14 23:25:00,-999.0,-99.9,29.98,North,-999,-999.0,-999.0,-999,-99.99,,,0.00,weatherlink.com 1.10,2013-08-15 03:25:00,
2013-08-14 23:40:00,-999.0,-99.9,29.97,North,-999,-999.0,-999.0,-999,-99.99,,,0.00,weatherlink.com 1.10,2013-08-15 03:40:00,
2013-08-14 23:55:00,-999.0,-99.9,29.97,North,-999,-999.0,-999.0,-999,-99.99,,,0.00,weatherlink.com 1.10,2013-08-15 03:55:00,